Das Wetter in  D-61279 Heinzenberg / Taunus





Wetter Minimum- & Maximum-Werte im April 2008

Standort: Heinzenberg / Taunus - Höhe 297 m         8° 24' 1" Ost 50° 21' 51" Nord
(   3-stündige Aktualisierung    letzte Aktualisierung um 20:46 am 30.04.2008  )


Messgrösse

Minimum

Maximum

Durchschnitt

Temperatur West /
Luftfeuchte West
Anklicken für Monats-Diagramm

-2,9 °C

05:57
08.04.2008

33 %

15:28
27.04.2008

20,2 °C

17:32
27.04.2008

95 %

09:50
06.04.2008

Temp

7,4 °C

Feuchte

79 %

Temperatur Ost /
Luftfeuchte Ost
Anklicken für Monats-Diagramm

-2,8 °C

06:22
08.04.2008

--

--
--

20,1 °C

14:43
27.04.2008

--

--
--

7,4 °C

--

Luftdruck Anklicken für Monats-Diagramm

995,7 hPa

05:32
19.04.2008

1031,1 hPa

07:24
26.04.2008

1011,7 hPa

Taupunkt

-3,8 °C

05:47
08.04.2008

12,0 °C

17:24
28.04.2008

3,7 °C

Windchill
( gefühlte Temperatur )

-15,2 °C

11:16
07.04.2008

19,5 °C

15:52
27.04.2008

5,7 °C

Windgeschwindigkeit /
Windrichtung
Anklicken für Monats-Diagramm

---

53,9 km/h / W-SW

16:36
30.04.2008

6,3 km/h
W

Helligkeit /
Sonnenschein
Anklicken für Monats-Diagramm
Anklicken für Monats-Diagramm

Sonnenschein:

93:26 Stunden

Max: 8:42 Std am
27.04.2008

114 klux

14:03
25.04.2008

25 klux

Solarstrahlung Anklicken für Monats-Diagramm

---

780 W/m²

14:03
25.04.2008

180 W/m²

Regenmenge
    April 2008
Anklicken für Monats-Diagramm

Insgesamt 42,0 l/m²

in 103:53 Stunden
an 23 Tagen

9,7 l/m²

13:52
19.04.2008

Gesamtmenge

42,0 l/m²

Regen-Tage
    April 2008
Anklicken für Monats-Diagramm

>   0 mm/Tag

>   2 mm/Tag

>   5 mm/Tag

> 10 mm/Tag

> 20 mm/Tag

23 Tage     
7 Tage     
5 Tage     
0 Tage     
0 Tage     

Eisige Tage April 2008 / 2007

Tmin ≤ -10°C     

0 Tage

/

0 Tage

Eistage April 2008 / 2007

Tmax <     0°C     

0 Tage

/

0 Tage

Frosttage April 2008 / 2007

Tmin ≤     0°C     

6 Tage

/

4 Tage

Kalte Tage April 2008 / 2007

Tmax <   10°C     

11 Tage

/

0 Tage

Warme Tage April 2008 / 2007

Tmax ≥   20°C     

  1 Tag

/

20 Tage

Sommertage April 2008 / 2007

Tmax ≥   25°C     

0 Tage

/

12 Tage

Heisse Tage April 2008 / 2007

Tmax ≥   30°C     

0 Tage

/

2 Tage


Monatsdiagramm April 2008

Die Kurven zeigen den Durchschnittswert des jeweiligen Tages an


Wetter-Monatsübersicht April 2008
Datum
  Temperatur
   Luftdruck
   Wind
  Regen
   Luftfeuchte
   Helligkeit

Sonnen-
schein

Ø
Temp.

Min.
Temp.

Max.
Temp.

Ø
Luftdruck

Min.
Luftdruck

Max.
Luftdruck

Ø-Geschw.
Haupt-Richtg.

Max.
Wind

Menge /
Dauer

Ø
Feuchte

Min.
Feuchte

Max.
Feuchte

Ø
Helligkeit

Max.
Helligkeit

1.
April
8,9 °C1,9 °C
08:00
16,8 °C
15:55
1021,8 hPa1018,2 hPa
16:25
1025,2 hPa
08:00
14,0 km/h
W
46,9 km/h
18:25  
---
30 Minuten
69 %43 %
16:10
89 %
09:40
38,4 klux83,1 klux
13:10
7:40 Std 
2.
April
7,0 °C4,5 °C
22:11
9,2 °C
15:31
1020,7 hPa1019,4 hPa
07:36
1021,7 hPa
22:11
17,0 km/h
W
36,2 km/h
00:11  
1,1 l/m²
6:06 Stunden
84 %72 %
14:06
92 %
23:17
12,1 klux65,1 klux
10:51
15 Min 
3.
April
5,8 °C2,7 °C
23:58
10,0 °C
15:12
1023,6 hPa1020,7 hPa
03:07
1029,2 hPa
23:58
11,2 km/h
W-NW
25,2 km/h
10:52  
0,3 l/m²
5:50 Stunden
85 %70 %
15:12
92 %
00:02
17,6 klux100,0 klux
13:22
40 Min 
4.
April
5,5 °C2,1 °C
00:33
9,5 °C
16:08
1027,1 hPa1021,6 hPa
23:44
1029,8 hPa
09:58
5,0 km/h
W-NW
20,6 km/h
18:33  
---
3:41 Stunden
83 %71 %
15:33
91 %
07:53
15 klux57 klux
13:48
5 Min 
5.
April
5,9 °C2,1 °C
23:55
8,6 °C
16:29
1011,4 hPa1005,1 hPa
20:29
1021,6 hPa
00:39
7,3 km/h
W-SW
29,1 km/h
14:44  
0,5 l/m²
11:35 Stunden
92 %87 %
14:24
94 %
08:59
9,7 klux42,2 klux
16:14
--- 
6.
April
2,4 °C-0,5 °C
03:35
7,2 °C
17:45
1002,7 hPa999,8 hPa
19:00
1005,7 hPa
01:40
2,1 km/h
NW
16,8 km/h
17:50  
0,3 l/m²
4:40 Stunden
90 %76 %
18:05
95 %
09:50
21,4 klux85,2 klux
15:05
3:15 Std 
7.
April
1,0 °C-0,7 °C
23:57
3,1 °C
17:31
1001,9 hPa997,3 hPa
02:56
1008,9 hPa
23:42
5,9 km/h
W
38,8 km/h
11:16  
1,4 l/m²
12:35 Stunden
92 %89 %
00:01
94 %
14:51
16,0 klux44,6 klux
16:16
30 Min 
8.
April
2,1 °C-2,9 °C
05:57
9,0 °C
15:52
1006,6 hPa1003,7 hPa
18:22
1009,1 hPa
02:47
1,8 km/h
SO
17,2 km/h
15:32  
0,2 l/m²
30 Minuten
86 %67 %
18:02
95 %
09:42
23,3 klux90,1 klux
14:37
1:35 Std 
9.
April
4,5 °C1,5 °C
05:18
8,8 °C
13:58
999,6 hPa996,8 hPa
19:08
1003,3 hPa
01:13
0,7 km/h
O
11,9 km/h
12:53  
1,1 l/m²
7:26 Stunden
86 %71 %
14:18
92 %
21:48
15,4 klux51,2 klux
12:33
--- 
10.
April
4,8 °C2,9 °C
05:49
8,5 °C
17:24
999,2 hPa998,0 hPa
00:04
1000,1 hPa
23:15
0,5 km/h
O
8,9 km/h
17:09  
---
10 Minuten
88 %78 %
17:24
94 %
08:34
13,3 klux41,9 klux
13:34
15 Min 
11.
April
5,4 °C3,2 °C
23:56
8,3 °C
13:55
999,7 hPa997,4 hPa
13:55
1006,3 hPa
23:56
1,9 km/h
W-NW
21,7 km/h
17:10  
5,0 l/m²
6:59 Stunden
93 %88 %
00:00
94 %
09:15
9,6 klux44,6 klux
13:50
--- 
12.
April
6,3 °C-0,4 °C
06:51
13,1 °C
16:36
1009,7 hPa1006,3 hPa
00:01
1013,2 hPa
23:52
9,0 km/h
W-SW
35,8 km/h
16:01  
---
10 Minuten
79 %53 %
16:41
95 %
05:26
32,1 klux94,4 klux
13:51
5:20 Std 
13.
April
7,9 °C5,3 °C
05:02
12,8 °C
15:07
1012,9 hPa1011,3 hPa
15:07
1014,0 hPa
10:17
8,5 km/h
W-SW
47,7 km/h
18:12  
5,8 l/m²
5:26 Stunden
82 %64 %
14:12
91 %
21:32
20,2 klux101,0 klux
14:52
1:00 Std 
14.
April
6,6 °C4,9 °C
23:23
8,4 °C
11:33
1012,0 hPa1009,8 hPa
11:33
1016,5 hPa
23:23
10,7 km/h
W-SW
31,4 km/h
13:48  
5,5 l/m²
8:25 Stunden
89 %78 %
15:18
94 %
06:53
12 klux83 klux
11:33
10 Min 
15.
April
6,0 °C2,9 °C
23:54
12,0 °C
16:03
1019,4 hPa1016,5 hPa
00:03
1023,0 hPa
23:54
4,8 km/h
NW
23,3 km/h
17:08  
---
1:00 Stunden
82 %59 %
16:13
94 %
03:48
24,0 klux101,0 klux
14:13
1:25 Std 
16.
April
4,6 °C0,7 °C
03:09
12,2 °C
15:29
1020,0 hPa1016,1 hPa
18:54
1023,3 hPa
03:09
2,7 km/h
W-NW
24,9 km/h
15:44  
---
1:10 Stunden
74 %52 %
16:49
91 %
08:14
30 klux88 klux
12:44
3:55 Std 
17.
April
5,3 °C-1,0 °C
06:15
12,8 °C
17:05
1009,7 hPa1004,1 hPa
17:55
1016,9 hPa
00:30
4,1 km/h
O-SO
26,3 km/h
16:20  
---
69 %49 %
18:05
86 %
08:25
31,1 klux83,6 klux
15:30
6:00 Std 
18.
April
6,9 °C-1,3 °C
05:26
16,4 °C
15:46
1001,1 hPa996,6 hPa
18:16
1005,6 hPa
02:16
6,0 km/h
SO
25,5 km/h
11:41  
---
69 %47 %
16:06
88 %
08:46
37,8 klux96,9 klux
14:06
7:55 Std 
19.
April
6,0 °C4,8 °C
03:17
7,2 °C
17:07
1000,5 hPa995,7 hPa
05:32
1006,0 hPa
23:02
0,4 km/h
O-NO
9,2 km/h
05:47  
9,7 l/m²
14:25 Stunden
87 %72 %
00:02
93 %
20:57
6,4 klux14,1 klux
13:47
--- 
20.
April
9,4 °C5,5 °C
05:48
17,2 °C
16:53
1006,3 hPa1004,6 hPa
16:53
1007,9 hPa
10:23
3,2 km/h
O-SO
19,2 km/h
12:18  
---
5 Minuten
83 %61 %
17:53
94 %
03:08
33,7 klux108,0 klux
13:38
5:10 Std 
21.
April
9,8 °C3,7 °C
04:14
15,7 °C
15:29
1003,0 hPa1000,6 hPa
15:29
1007,0 hPa
00:49
4,3 km/h
NO
20,0 km/h
16:29  
---
77 %65 %
14:54
91 %
07:34
27 klux93 klux
11:44
1:45 Std 
22.
April
10,5 °C8,8 °C
23:56
12,4 °C
16:20
1007,0 hPa1002,3 hPa
00:00
1013,9 hPa
23:56
2,4 km/h
N-NO
23,1 km/h
16:35  
---
74 %70 %
00:00
80 %
22:56
10,8 klux33,1 klux
17:00
--- 
23.
April
10,8 °C3,2 °C
06:06
19,3 °C
14:46
1018,0 hPa1013,9 hPa
00:01
1021,3 hPa
23:57
5,5 km/h
O-SO
26,1 km/h
15:46  
---
69 %44 %
14:56
91 %
09:01
40,8 klux101,0 klux
13:36
8:10 Std 
24.
April
11,7 °C7,0 °C
01:12
19,2 °C
16:32
1022,4 hPa1021,3 hPa
03:47
1024,2 hPa
09:37
5,7 km/h
W
25,9 km/h
16:22  
0,2 l/m²
1:05 Stunden
71 %49 %
16:37
90 %
08:57
35 klux93 klux
14:27
4:55 Std 
25.
April
10,6 °C6,6 °C
03:53
16,6 °C
17:58
1027,0 hPa1023,0 hPa
00:38
1030,6 hPa
23:54
12,9 km/h
W
43,4 km/h
00:43  
2,3 l/m²
1:20 Stunden
74 %49 %
18:28
90 %
04:48
36,7 klux114,0 klux
14:03
5:55 Std 
26.
April
10,9 °C3,4 °C
06:24
18,9 °C
16:19
1028,6 hPa1026,1 hPa
17:24
1031,1 hPa
07:24
1,8 km/h
SO
17,2 km/h
17:14  
---
70 %49 %
16:19
89 %
08:39
33 klux99 klux
15:04
4:45 Std 
27.
April
12,6 °C4,2 °C
06:10
20,2 °C
17:32
1021,5 hPa1014,7 hPa
23:19
1027,6 hPa
01:20
8,9 km/h
O-SO
34,3 km/h
12:05  
---
59 %33 %
15:28
85 %
06:25
40,2 klux81,8 klux
14:06
8:42 Std 
28.
April
11,2 °C6,0 °C
05:09
19,6 °C
12:49
1008,9 hPa1005,4 hPa
13:24
1015,0 hPa
00:49
6,5 km/h
SW
34,1 km/h
19:04  
6,2 l/m²
5:30 Stunden
76 %58 %
12:49
90 %
17:04
25,4 klux102,0 klux
12:44
2:50 Std 
29.
April
10,5 °C6,6 °C
23:56
16,0 °C
17:00
1005,0 hPa1002,7 hPa
18:15
1006,8 hPa
06:55
10,1 km/h
W-SW
36,6 km/h
12:40  
2,6 l/m²
3:45 Stunden
72 %43 %
18:55
92 %
06:25
36 klux104 klux
13:54
6:14 Std 
30.
April
10,4 °C3,5 °C
05:41
18,0 °C
14:56
1002,7 hPa999,3 hPa
14:56
1007,7 hPa
23:57
14,6 km/h
W-SW
53,9 km/h
16:36  
---
1:30 Stunden
67 %43 %
15:01
82 %
06:26
33 klux98 klux
12:11
5:00 Std 



April
2008

Temperatur

  

Luftdruck

  

Wind

  

Regen

  

Luftfeuchte

  

Helligkeit

Sonnen-
schein

Ø

Min

Max

Ø

Min

Max

Ø

Max

Max

Ø

Min

Max

Ø

Max

Max

7,4 °C

-2,9 °C

05:57 Uhr
08.04.2008

20,2 °C

17:32 Uhr
27.04.2008

1011,7 hPa

995,7 hPa

05:32 Uhr
19.04.2008

1031,1 hPa

07:24 Uhr
26.04.2008

6,3 km/h

W

53,9 km/h

16:36 Uhr
30.04.2008

9,7 l/m²

14:25 Stunden
19.04.2008

79 %

33 %

15:28 Uhr
27.04.2008

95 %

09:50 Uhr
06.04.2008

24,6 klux

114,0 klux

14:03 Uhr
25.04.2008

8:42 Std

am
27.04.2008

Gesamt

Gesamt

42,0 l/m²

23 Tage
103:53 h

93:26 Std


Wetter-Diagramme April 2008     Heinzenberg / Taunus   
TemperaturLuftfeuchte
SolarstrahlungLuftdruck
HelligkeitSonnenschein
RegenmengeRegendauer
Wind-GeschwindigkeitWind-Richtung